When you browse on this site, cookies collect data to enhance your experience and personalize the content and advertising you see.
Visit our Privacy Policy to learn more. By continuing to use the site, you agree to this use of cookies and data.
  • In Spain
  • List of Countries
  • For 7 days
  • Water Temperature
  • Weather Map
  • Weather Widgets
  • user-avatar
    Login

    Hourly Weather Los Andes

    Today, 28 January, Tuesday

    Time Temperature Precipitation Wind Pressure Humidity
    00:00 +19°C° 0 mm 0 mps 689 mmHg 69%
    01:00 +18°C° 0 mm 0 mps 689 mmHg 70%
    02:00 +18°C° 0 mm 0 mps 688 mmHg 70%
    03:00 +18°C° 0 mm 0 mps 688 mmHg 70%
    04:00 +18°C° 0 mm 0 mps 688 mmHg 70%
    05:00 +20°C° 0 mm 0 mps 689 mmHg 63%
    06:00 +21°C° 0 mm 0 mps 689 mmHg 56%
    07:00 +25°C° 0 mm 1 mps 690 mmHg 49%
    08:00 +27°C° 0 mm 1 mps 690 mmHg 44%
    09:00 +28°C° 0 mm 2 mps 690 mmHg 39%
    10:00 +30°C° 0 mm 3 mps 690 mmHg 33%
    11:00 +30°C° 0 mm 3 mps 690 mmHg 31%
    12:00 +32°C° 0 mm 4 mps 690 mmHg 29%
    13:00 +33°C° 0 mm 4 mps 690 mmHg 28%
    14:00 +32°C° 0.1 mm 4 mps 690 mmHg 29%
    15:00 +30°C° 0.1 mm 4 mps 690 mmHg 31%
    16:00 +30°C° 0.1 mm 4 mps 690 mmHg 33%
    17:00 +27°C° 0 mm 3 mps 689 mmHg 43%
    18:00 +25°C° 0 mm 3 mps 689 mmHg 53%
    19:00 +23°C° 0 mm 2 mps 689 mmHg 63%
    20:00 +22°C° 0 mm 1 mps 689 mmHg 68%
    21:00 +20°C° 0 mm 1 mps 689 mmHg 73%
    22:00 +17°C° 0 mm 0 mps 689 mmHg 79%
    23:00 +17°C° 0 mm 0 mps 689 mmHg 79%

    Tomorrow, 29 January, Wednesday

    Time Temperature Precipitation Wind Pressure Humidity
    00:00 +17°C° 0 mm 0 mps 688 mmHg 80%
    01:00 +16°C° 0 mm 0 mps 688 mmHg 80%
    02:00 +16°C° 0 mm 0 mps 688 mmHg 81%
    03:00 +16°C° 0 mm 0 mps 688 mmHg 81%
    04:00 +16°C° 0 mm 0 mps 688 mmHg 82%
    05:00 +17°C° 0 mm 0 mps 689 mmHg 75%
    06:00 +21°C° 0 mm 1 mps 689 mmHg 68%
    07:00 +22°C° 0 mm 1 mps 690 mmHg 62%
    08:00 +24°C° 0.1 mm 1 mps 690 mmHg 55%
    09:00 +26°C° 0.1 mm 2 mps 691 mmHg 48%
    10:00 +28°C° 0.1 mm 3 mps 691 mmHg 41%
    11:00 +28°C° 0.1 mm 3 mps 691 mmHg 39%
    12:00 +29°C° 0.1 mm 4 mps 691 mmHg 36%
    13:00 +30°C° 0.1 mm 4 mps 691 mmHg 33%
    14:00 +30°C° 0.4 mm 4 mps 691 mmHg 35%
    15:00 +29°C° 0.4 mm 4 mps 691 mmHg 38%
    16:00 +28°C° 0.4 mm 4 mps 691 mmHg 40%
    17:00 +26°C° 0.2 mm 3 mps 691 mmHg 45%
    18:00 +24°C° 0.2 mm 2 mps 691 mmHg 50%
    19:00 +22°C° 0.2 mm 1 mps 691 mmHg 54%
    20:00 +21°C° 0 mm 1 mps 691 mmHg 57%
    21:00 +20°C° 0 mm 1 mps 691 mmHg 59%
    22:00 +17°C° 0 mm 0 mps 691 mmHg 62%
    23:00 +17°C° 0 mm 0 mps 690 mmHg 62%

    Day after tomorrow, 30 January, Thursday

    Time Temperature Precipitation Wind Pressure Humidity
    00:00 +17°C° 0 mm 0 mps 690 mmHg 62%
    01:00 +16°C° 0 mm 0 mps 689 mmHg 63%
    02:00 +16°C° 0 mm 0 mps 689 mmHg 63%
    03:00 +16°C° 0 mm 0 mps 689 mmHg 64%
    04:00 +15°C° 0 mm 0 mps 689 mmHg 64%
    05:00 +18°C° 0 mm 0 mps 689 mmHg 55%
    06:00 +20°C° 0 mm 0 mps 690 mmHg 46%
    07:00 +22°C° 0 mm 0 mps 691 mmHg 37%
    08:00 +26°C° 0 mm 1 mps 691 mmHg 33%
    09:00 +28°C° 0 mm 2 mps 691 mmHg 30%
    10:00 +30°C° 0 mm 2 mps 691 mmHg 26%
    11:00 +31°C° 0 mm 3 mps 691 mmHg 24%
    12:00 +33°C° 0 mm 4 mps 691 mmHg 22%
    13:00 +34°C° 0 mm 4 mps 691 mmHg 21%
    14:00 +33°C° 0 mm 4 mps 691 mmHg 23%
    15:00 +33°C° 0 mm 4 mps 691 mmHg 25%
    16:00 +32°C° 0 mm 4 mps 691 mmHg 27%
    17:00 +28°C° 0 mm 3 mps 690 mmHg 34%
    18:00 +26°C° 0 mm 2 mps 690 mmHg 42%
    19:00 +23°C° 0 mm 2 mps 690 mmHg 50%
    20:00 +22°C° 0 mm 1 mps 690 mmHg 54%
    21:00 +21°C° 0 mm 1 mps 690 mmHg 58%
    22:00 +18°C° 0 mm 0 mps 690 mmHg 62%
    23:00 +18°C° 0 mm 0 mps 690 mmHg 62%

    31 January, Friday

    Time Temperature Precipitation Wind Pressure Humidity
    00:00 +18°C° 0 mm 0 mps 689 mmHg 63%
    01:00 +18°C° 0 mm 0 mps 689 mmHg 64%
    02:00 +17°C° 0 mm 0 mps 689 mmHg 64%
    03:00 +17°C° 0 mm 0 mps 689 mmHg 65%
    04:00 +17°C° 0 mm 0 mps 689 mmHg 66%
    05:00 +19°C° 0 mm 0 mps 689 mmHg 58%
    06:00 +21°C° 0 mm 0 mps 690 mmHg 50%
    07:00 +23°C° 0 mm 0 mps 690 mmHg 41%
    08:00 +27°C° 0 mm 1 mps 691 mmHg 37%
    09:00 +28°C° 0 mm 2 mps 691 mmHg 33%
    10:00 +30°C° 0 mm 3 mps 691 mmHg 29%
    11:00 +31°C° 0.1 mm 3 mps 691 mmHg 28%
    12:00 +32°C° 0.1 mm 4 mps 691 mmHg 27%
    13:00 +33°C° 0.1 mm 4 mps 691 mmHg 25%
    14:00 +33°C° 0.1 mm 4 mps 691 mmHg 27%
    15:00 +32°C° 0.1 mm 4 mps 691 mmHg 28%
    16:00 +32°C° 0.1 mm 4 mps 691 mmHg 30%
    17:00 +28°C° 0 mm 3 mps 691 mmHg 37%
    18:00 +26°C° 0 mm 2 mps 691 mmHg 43%
    19:00 +23°C° 0 mm 1 mps 690 mmHg 50%
    20:00 +22°C° 0 mm 1 mps 690 mmHg 53%
    21:00 +19°C° 0 mm 0 mps 690 mmHg 56%
    22:00 +18°C° 0 mm 0 mps 690 mmHg 59%
    23:00 +18°C° 0 mm 0 mps 689 mmHg 61%

    1 February, Saturday

    Time Temperature Precipitation Wind Pressure Humidity
    00:00 +18°C° 0 mm 0 mps 689 mmHg 62%
    01:00 +17°C° 0 mm 0 mps 689 mmHg 64%
    02:00 +17°C° 0 mm 0 mps 688 mmHg 65%
    03:00 +17°C° 0 mm 0 mps 688 mmHg 66%
    04:00 +16°C° 0 mm 0 mps 688 mmHg 67%
    05:00 +18°C° 0 mm 0 mps 689 mmHg 59%
    06:00 +22°C° 0 mm 1 mps 689 mmHg 52%
    07:00 +23°C° 0 mm 1 mps 690 mmHg 45%
    08:00 +25°C° 0 mm 1 mps 690 mmHg 41%
    09:00 +27°C° 0 mm 2 mps 690 mmHg 38%
    10:00 +28°C° 0 mm 3 mps 690 mmHg 34%
    11:00 +29°C° 0 mm 3 mps 690 mmHg 33%
    12:00 +30°C° 0 mm 4 mps 690 mmHg 31%
    13:00 +32°C° 0 mm 4 mps 690 mmHg 30%
    14:00 +32°C° 0.1 mm 4 mps 690 mmHg 31%
    15:00 +30°C° 0.1 mm 4 mps 690 mmHg 32%
    16:00 +30°C° 0.1 mm 4 mps 690 mmHg 33%
    17:00 +27°C° 0.1 mm 3 mps 689 mmHg 42%
    18:00 +25°C° 0.1 mm 2 mps 689 mmHg 51%
    19:00 +22°C° 0.1 mm 1 mps 689 mmHg 60%
    20:00 +21°C° 0 mm 1 mps 689 mmHg 63%
    21:00 +20°C° 0 mm 1 mps 689 mmHg 65%
    22:00 +17°C° 0 mm 0 mps 689 mmHg 68%
    23:00 +17°C° 0 mm 0 mps 689 mmHg 69%

    2 February, Sunday

    Time Temperature Precipitation Wind Pressure Humidity
    00:00 +17°C° 0 mm 0 mps 688 mmHg 69%
    01:00 +16°C° 0 mm 0 mps 688 mmHg 70%
    02:00 +16°C° 0 mm 0 mps 688 mmHg 70%
    03:00 +16°C° 0 mm 0 mps 688 mmHg 70%
    04:00 +16°C° 0 mm 0 mps 688 mmHg 70%
    05:00 +18°C° 0 mm 0 mps 689 mmHg 62%
    06:00 +19°C° 0 mm 0 mps 689 mmHg 54%
    07:00 +23°C° 0 mm 1 mps 690 mmHg 47%
    08:00 +25°C° 0 mm 1 mps 690 mmHg 43%
    09:00 +27°C° 0 mm 2 mps 691 mmHg 40%
    10:00 +28°C° 0 mm 3 mps 691 mmHg 36%
    11:00 +29°C° 0 mm 3 mps 691 mmHg 33%
    12:00 +30°C° 0 mm 4 mps 691 mmHg 31%
    13:00 +32°C° 0 mm 4 mps 691 mmHg 28%
    14:00 +32°C° 0 mm 4 mps 691 mmHg 29%
    15:00 +30°C° 0 mm 4 mps 691 mmHg 31%
    16:00 +30°C° 0 mm 4 mps 691 mmHg 32%
    17:00 +27°C° 0 mm 3 mps 690 mmHg 42%
    18:00 +24°C° 0 mm 2 mps 690 mmHg 52%
    19:00 +21°C° 0 mm 2 mps 690 mmHg 61%
    20:00 +21°C° 0 mm 1 mps 690 mmHg 65%
    21:00 +20°C° 0 mm 1 mps 690 mmHg 70%
    22:00 +16°C° 0 mm 0 mps 690 mmHg 74%
    23:00 +16°C° 0 mm 0 mps 690 mmHg 75%
    Show more